EW4799 Weather Reports


time (UTC)temp
F
wind
direction
speed
knots
gust
knots
rain 1hr
in
rain 24hr
in
rain mn
in
humidity
%
barometer
mb
20260510214552 69 187 0.9 3.5 0.00 0.00 0.00 55 1020.6
20260510213114 68 208 0.9 2.6 0.00 0.00 0.00 57 1020.5
20260510211559 65 188 0.9 3.5 0.00 0.00 0.00 62 1020.6
20260510210056 63 176 0.0 4.3 0.00 0.00 0.00 66 1020.6
20260510204612 61 197 0.9 5.2 0.00 0.00 0.00 68 1020.5
20260510203055 62 65 1.7 6.1 0.00 0.00 0.00 69 1020.5
20260510201552 61 116 0.9 4.3 0.00 0.00 0.00 70 1020.1
20260510200052 60 177 0.9 3.5 0.00 0.00 0.00 73 1020.0
20260510194603 61 172 0.9 3.5 0.00 0.00 0.00 73 1019.8
20260510193053 60 182 0.9 3.5 0.00 0.00 0.00 74 1019.6
20260510191554 59 190 0.9 2.6 0.00 0.00 0.00 76 1019.7
20260510190105 59 190 0.0 2.6 0.00 0.00 0.00 76 1019.7
20260510184605 60 176 0.0 0.0 0.00 0.00 0.00 75 1019.7
20260510183056 59 0 0.0 2.6 0.00 0.00 0.00 74 1019.6
20260510181615 60 249 0.0 1.7 0.00 0.00 0.00 72 1019.4
20260510180057 60 0 0.0 1.7 0.00 0.00 0.00 72 1019.3
20260510174605 59 202 0.0 2.6 0.00 0.00 0.00 74 1019.2
20260510173056 58 0 0.0 1.7 0.00 0.00 0.00 71 1019.3
20260510171618 58 0 0.0 0.9 0.00 0.00 0.00 74 1019.1
20260510170053 58 153 0.0 0.9 0.00 0.00 0.00 71 1019.4
20260510164559 59 0 0.0 0.9 0.00 0.00 0.00 69 1019.0
20260510163057 58 70 0.0 2.6 0.00 0.00 0.00 74 1018.3
20260510161553 57 0 0.0 0.9 0.00 0.00 0.00 75 1018.2
20260510160054 57 0 0.0 0.9 0.00 0.00 0.00 76 1018.7
20260510154559 56 0 0.0 3.5 0.00 0.00 0.00 76 1018.7
20260510153058 55 41 0.0 1.7 0.00 0.00 0.00 80 1018.1
20260510151554 55 0 0.0 0.0 0.00 0.00 0.00 83 1017.9
20260510150055 54 0 0.0 0.9 0.00 0.00 0.00 85 1018.6
20260510144611 53 0 0.0 0.0 0.00 0.00 0.00 87 1018.4
20260510143051 53 0 0.0 0.0 0.00 0.00 0.00 87 1018.3
20260510141551 52 0 0.0 0.0 0.00 0.00 0.00 86 1018.2
20260510140053 51 0 0.0 0.0 0.00 0.00 0.00 82 1017.1
20260510134552 50 0 0.0 0.0 0.00 0.00 0.00 81 1017.6
20260510133053 49 0 0.0 0.0 0.00 0.00 0.00 82 1017.9
20260510131550 49 0 0.0 0.0 0.00 0.00 0.00 82 1018.3
20260510130052 48 0 0.0 0.0 0.00 0.00 0.00 84 1018.2
20260510124600 48 0 0.0 0.0 0.00 0.00 0.00 85 1018.1
20260510123053 49 0 0.0 0.0 0.00 0.00 0.00 85 1018.1
20260510121549 49 0 0.0 0.0 0.00 0.00 0.00 85 1017.8
20260510120051 49 0 0.0 0.0 0.00 0.00 0.00 85 1017.7
20260510114609 49 0 0.0 0.0 0.00 0.00 0.00 85 1017.7
20260510113059 50 0 0.0 0.0 0.00 0.00 0.00 85 1017.9
20260510111556 50 0 0.0 0.0 0.00 0.00 0.00 85 1017.8
20260510110104 50 0 0.0 0.0 0.00 0.00 0.00 85 1017.6
20260510104600 50 0 0.0 0.0 0.00 0.00 0.00 85 1017.5
20260510103059 50 0 0.0 0.0 0.00 0.00 0.00 85 1017.4
20260510101602 50 0 0.0 0.0 0.00 0.00 0.00 85 1017.4
20260510100110 50 0 0.0 0.0 0.00 0.00 0.00 85 1017.1
20260510094600 50 0 0.0 0.0 0.00 0.00 0.00 86 1017.0
20260510093059 51 0 0.0 0.0 0.00 0.00 0.00 86 1016.8
20260510091601 51 0 0.0 0.0 0.00 0.00 0.00 86 1016.7
20260510090053 51 0 0.0 0.0 0.00 0.00 0.00 86 1016.6
20260510084608 52 0 0.0 0.0 0.00 0.00 0.00 86 1016.6
20260510083055 52 0 0.0 0.0 0.00 0.00 0.00 86 1016.4
20260510081602 52 0 0.0 0.0 0.00 0.00 0.00 86 1016.5
20260510080100 52 0 0.0 0.0 0.00 0.00 0.00 86 1016.4
20260510074558 53 0 0.0 0.0 0.00 0.00 0.00 86 1016.9
20260510073059 53 0 0.0 0.0 0.00 0.00 0.00 86 1016.7
20260510071555 53 0 0.0 0.0 0.00 0.00 0.00 86 1016.5
20260510070113 54 0 0.0 0.0 0.00 0.00 0.00 86 1016.4
20260510064556 54 0 0.0 0.0 0.00 0.00 0.00 85 1016.5
20260510063051 55 0 0.0 0.0 0.00 0.00 0.00 85 1016.7
20260510061554 55 0 0.0 0.0 0.00 0.00 0.00 84 1016.7
20260510060053 55 0 0.0 0.0 0.00 0.00 0.00 84 1016.6
20260510054553 56 0 0.0 0.0 0.00 0.00 0.00 84 1016.4
20260510053100 56 0 0.0 0.0 0.00 0.00 0.00 83 1016.5
20260510051609 56 0 0.0 0.0 0.00 0.00 0.00 82 1016.5
20260510050108 57 0 0.0 0.0 0.00 0.00 0.00 82 1016.5
20260510044549 57 0 0.0 0.0 0.00 0.00 0.00 81 1016.5
20260510043051 58 0 0.0 0.0 0.00 0.00 0.00 80 1016.5
20260510041553 58 0 0.0 0.0 0.00 0.00 0.00 78 1016.5
20260510034554 60 0 0.0 0.0 0.00 0.00 0.00 73 1016.2
20260510033056 61 0 0.0 0.0 0.00 0.00 0.00 71 1016.4
20260510031559 63 0 0.0 0.0 0.00 0.00 0.00 69 1016.5
20260510030058 64 0 0.0 0.0 0.00 0.00 0.00 64 1016.6
20260510024557 66 0 0.0 0.0 0.00 0.00 0.00 62 1016.8
20260510023054 67 0 0.0 0.9 0.00 0.00 0.00 56 1016.8
20260510021641 70 0 0.0 1.7 0.00 0.00 0.00 52 1016.7
20260510020050 70 0 0.0 1.7 0.00 0.00 0.00 52 1017.1
20260510014559 70 0 0.0 1.7 0.00 0.00 0.00 50 1017.3
20260510013102 70 0 0.0 0.9 0.00 0.00 0.00 52 1017.3
20260510011555 70 0 0.0 0.9 0.00 0.00 0.00 52 1017.4
20260510010059 70 160 0.0 0.9 0.00 0.00 0.00 50 1017.5
20260510004552 70 0 0.0 1.7 0.00 0.00 0.00 51 1017.7
20260510003053 70 162 0.0 1.7 0.00 0.00 0.00 52 1017.7
20260510001551 70 0 0.9 2.6 0.00 0.00 0.00 52 1018.0
20260510000054 70 46 0.9 2.6 0.00 0.00 0.00 52 1018.1
20260509234553 71 172 0.0 4.3 0.00 0.00 0.00 49 1018.3
20260509233058 72 120 0.0 2.6 0.00 0.00 0.00 47 1018.5
20260509231558 71 201 0.0 2.6 0.00 0.00 0.00 48 1018.6
20260509230058 71 40 0.9 3.5 0.00 0.00 0.00 48 1018.9
20260509224553 70 219 0.0 3.5 0.00 0.00 0.00 48 1019.1
20260509223053 71 154 0.9 4.3 0.00 0.00 0.00 47 1019.2
20260509221550 70 23 0.9 3.5 0.00 0.00 0.00 49 1019.2